Weather History for KLAF - December, 2012

Change the Weather History Date:

Sunday, December 9, 2012

  Actual Average Record
Temperature  
Mean Temperature 44 °F 32 °F  
Max Temperature 50 °F 40 °F - ()
Min Temperature 38 °F 25 °F - ()
Degree Days  
Heating Degree Days 21 33  
Month to date heating degree days 162 280  
Since 1 July heating degree days 1496 1381  
Cooling Degree Days 0 0  
Month to date cooling degree days 0 0  
Year to date cooling degree days 1181 983  
Moisture  
Dew Point 42 °F    
Average Humidity 93    
Maximum Humidity 100    
Minimum Humidity 85    
Precipitation  
Precipitation 0.25 in 0.08 in - ()
Month to date precipitation 0.78 0.84  
Year to date precipitation 28.48 34.91  
Sea Level Pressure  
Sea Level Pressure 29.83 in    
Wind  
Wind Speed 11 mph (ESE)    
Max Wind Speed 22 mph    
Max Gust Speed 25 mph    
Visibility 5 miles    
Events Rain    
T = Trace of Precipitation, MM = Missing Value Source: NWS Daily Summary

Daily Weather History Graph

Daily Weather History Graph

Search for Another Location

Airport or City:

Trip Planner

Search our weather history database for the weather conditions in past years. The results will help you decide how hot, cold, wet, or windy it might be!

Date:

Astronomy

Dec. 09, 2012 Rise Set
Actual Time 7:59 AM EST 5:21 PM EST
Civil Twilight 7:28 AM EST 5:51 PM EST
Nautical Twilight 6:54 AM EST 6:25 PM EST
Astronomical Twilight 6:21 AM EST 6:58 PM EST
Moon 3:31 AM EST (12/9) 2:28 PM EST (12/9)
Length of Visible Light 10h 22m
Length of Day
9h 21m
Waning Crescent, 19% of the Moon is Illuminated
Dec 9
Waning Crescent
Dec 13
New
Dec 20
First Quarter
Dec 28
Full
Jan 4
Last Quarter

Hourly Weather History & Observations

Time (EST) Temp. Windchill Dew Point Humidity Pressure Visibility Wind Dir Wind Speed Gust Speed Precip Events Conditions
12:54 AM 37.9 °F 30.9 °F 35.1 °F 89% 30.06 in 10.0 mi East 10.4 mph - N/A   Overcast
2:54 AM 39.0 °F 31.8 °F 35.1 °F 86% 30.05 in 9.0 mi East 11.5 mph - N/A   Overcast
3:28 AM 39.2 °F 31.6 °F 35.6 °F 87% 30.04 in 8.0 mi East 12.7 mph - 0.00 in Rain Light Rain
3:54 AM 39.0 °F 31.8 °F 36.0 °F 89% 30.04 in 6.0 mi East 11.5 mph - 0.00 in   Overcast
4:54 AM 37.9 °F 29.6 °F 36.0 °F 93% 30.00 in 6.0 mi East 13.8 mph - 0.00 in   Overcast
5:54 AM 37.9 °F 28.9 °F 36.0 °F 93% 29.98 in 6.0 mi East 16.1 mph - 0.00 in   Overcast
7:25 AM 37.4 °F 28.5 °F 37.4 °F 100% 29.95 in 4.0 mi East 15.0 mph - 0.07 in Rain Light Rain
7:54 AM 39.0 °F 29.9 °F 37.0 °F 93% 29.95 in 5.0 mi East 17.3 mph - 0.12 in Rain Light Rain
8:54 AM 39.0 °F 29.9 °F 37.9 °F 96% 29.93 in 5.0 mi East 17.3 mph - 0.03 in Rain Light Rain
9:54 AM 39.9 °F 32.1 °F 37.9 °F 93% 29.91 in 5.0 mi East 13.8 mph - 0.00 in   Overcast
10:23 AM 41.0 °F 32.8 °F 39.2 °F 93% 29.88 in 2.0 mi ESE 16.1 mph - 0.00 in Rain Light Rain
10:43 AM 41.0 °F 34.3 °F 39.2 °F 93% 29.88 in 2.0 mi East 11.5 mph - 0.01 in Rain Light Rain
10:54 AM 41.0 °F 34.3 °F 39.9 °F 96% 29.89 in 2.0 mi ESE 11.5 mph - 0.01 in   Overcast
11:01 AM 42.8 °F 36.6 °F 39.2 °F 87% 29.88 in 3.0 mi ESE 11.5 mph - N/A   Overcast
11:54 AM 43.0 °F 37.7 °F 41.0 °F 93% 29.86 in 4.0 mi SE 9.2 mph - N/A   Overcast
12:32 PM 44.6 °F 40.7 °F 42.8 °F 93% 29.82 in 5.0 mi ESE 6.9 mph - 0.03 in Rain Light Rain
12:51 PM 44.6 °F 42.2 °F 42.8 °F 93% 29.81 in 4.0 mi SE 4.6 mph - 0.03 in   Overcast
12:54 PM 45.0 °F 41.8 °F 43.0 °F 93% 29.82 in 4.0 mi SE 5.8 mph - 0.03 in   Overcast
1:24 PM 44.6 °F 41.4 °F 44.6 °F 100% 29.79 in 2.0 mi SE 5.8 mph - N/A   Overcast
1:32 PM 44.6 °F 41.4 °F 44.6 °F 100% 29.79 in 1.8 mi SE 5.8 mph - N/A   Overcast
1:51 PM 44.6 °F 42.2 °F 44.6 °F 100% 29.77 in 2.0 mi SE 4.6 mph - N/A   Overcast
1:54 PM 45.0 °F 43.5 °F 45.0 °F 100% 29.78 in 2.0 mi SE 3.5 mph - N/A   Overcast
2:14 PM 46.4 °F - 46.4 °F 100% 29.76 in 1.8 mi Calm Calm - N/A   Overcast
2:54 PM 46.9 °F - 46.9 °F 100% 29.75 in 1.5 mi SSE 6.9 mph - N/A   Overcast
3:54 PM 48.9 °F - 48.9 °F 100% 29.76 in 1.5 mi West 6.9 mph - N/A   Overcast
4:54 PM 50.0 °F - 48.9 °F 96% 29.75 in 1.5 mi WSW 6.9 mph - 0.01 in   Overcast
5:31 PM 50.0 °F - 48.2 °F 94% 29.74 in 2.0 mi West 5.8 mph - N/A   Overcast
5:54 PM 50.0 °F - 48.9 °F 96% 29.74 in 2.0 mi West 4.6 mph - N/A   Overcast
6:01 PM 50.0 °F - 48.2 °F 94% 29.74 in 3.0 mi West 9.2 mph - N/A   Overcast
6:54 PM 48.0 °F - 46.9 °F 96% 29.73 in 4.0 mi WNW 3.5 mph - 0.03 in Rain Light Rain
7:54 PM 46.9 °F - 46.0 °F 97% 29.74 in 7.0 mi WNW 5.8 mph - 0.00 in   Overcast
8:36 PM 46.4 °F 42.4 °F 44.6 °F 93% 29.72 in 8.0 mi WNW 8.1 mph - 0.02 in   Overcast
8:54 PM 46.0 °F 40.6 °F 44.1 °F 93% 29.74 in 7.0 mi WNW 11.5 mph - 0.02 in   Overcast
9:38 PM 44.6 °F 39.7 °F 42.8 °F 93% 29.73 in 5.0 mi NW 9.2 mph - N/A   Overcast
9:54 PM 44.1 °F 37.4 °F 42.1 °F 93% 29.74 in 7.0 mi WNW 13.8 mph - N/A   Overcast
10:06 PM 42.8 °F 35.8 °F 41.0 °F 93% 29.74 in 8.0 mi NW 13.8 mph - N/A   Overcast
10:54 PM 41.0 °F 34.3 °F 39.0 °F 93% 29.75 in 10.0 mi WNW 11.5 mph - N/A   Overcast
11:05 PM 41.0 °F 33.1 °F 39.2 °F 93% 29.75 in 10.0 mi WNW 15.0 mph 23.0 mph N/A   Overcast
11:17 PM 41.0 °F 34.3 °F 39.2 °F 93% 29.76 in 10.0 mi WNW 11.5 mph 18.4 mph N/A   Overcast
11:54 PM 39.9 °F 32.5 °F 37.0 °F 89% 29.77 in 10.0 mi WNW 12.7 mph - N/A   Overcast